QPF
0.07 0.05 0.07 0.08 0.07 0.07 0.06 0.06 0.05 0.05 0.06 0.04 0.03 0.03 0.04 0.05 0.05 0.04 0.04 0.03 0.02 0.03 0.02 0.03 0.03 0.04 0.04 0.04 0.04 0.04 0.04 0.03 0.02 0.02 0.02 0.04 0.04 0.05 0.06 0.04 0.04 0.04 0.03
0.08 0.07 0.06 0.08 0.08 0.07 0.06 0.05 0.05 0.06 0.07 0.06 0.05 0.04 0.04 0.04 0.03 0.02 0.03 0.03 0.03 0.03 0.03 0.03 0.04 0.05 0.05 0.05 0.05 0.04 0.04 0.04 0.03 0.02 0.01 0.03 0.04 0.05 0.05 0.04 0.03 0.04 0.03
0.07 0.07 0.07 0.07 0.07 0.06 0.06 0.05 0.04 0.05 0.06 0.06 0.06 0.04 0.03 0.03 0.02 0.02 0.03 0.03 0.03 0.03 0.02 0.03 0.04 0.05 0.06 0.07 0.07 0.06 0.07 0.06 0.05 0.04 0.03 0.04 0.04 0.03 0.04 0.04 0.03 0.03 0.03
0.07 0.07 0.07 0.06 0.06 0.06 0.06 0.08 0.07 0.06 0.07 0.07 0.05 0.03 0.02 0.02 0.01 0.02 0.02 0.03 0.04 0.03 0.03 0.04 0.04 0.05 0.05 0.05 0.07 0.09 0.10 0.09 0.08 0.07 0.07 0.06 0.04 0.03 0.03 0.03 0.03 0.03 0.03
0.06 0.08 0.08 0.06 0.04 0.06 0.06 0.05 0.06 0.07 0.08 0.06 0.02 0.02 0.01 0.01 0.01 0.01 0.03 0.04 0.05 0.05 0.06 0.05 0.04 0.06 0.07 0.05 0.07 0.09 0.08 0.07 0.07 0.07 0.06 0.06 0.06 0.05 0.04 0.04 0.03 0.03 0.02
0.07 0.08 0.08 0.05 0.03 0.05 0.07 0.06 0.08 0.08 0.07 0.06 0.02 0.02 0.01 0.01 0.01 0.02 0.03 0.04 0.04 0.04 0.06 0.05 0.06 0.07 0.05 0.06 0.06 0.07 0.07 0.07 0.07 0.07 0.07 0.07 0.06 0.06 0.05 0.03 0.03 0.03 0.02
0.08 0.10 0.08 0.07 0.04 0.04 0.06 0.05 0.06 0.07 0.05 0.03 0.04 0.03 0.01 0.00 0.01 0.01 0.02 0.03 0.03 0.03 0.05 0.05 0.05 0.05 0.05 0.04 0.04 0.05 0.05 0.07 0.07 0.06 0.06 0.06 0.06 0.05 0.04 0.03 0.02 0.02 0.01
0.11 0.12 0.10 0.08 0.05 0.04 0.05 0.04 0.05 0.05 0.04 0.03 0.04 0.04 0.03 0.02 0.01 0.01 0.02 0.02 0.02 0.02 0.01 0.03 0.04 0.06 0.06 0.05 0.04 0.03 0.04 0.06 0.07 0.07 0.07 0.07 0.05 0.03 0.03 0.03 0.03 0.03 0.02
0.12 0.15 0.13 0.09 0.07 0.04 0.05 0.05 0.05 0.05 0.06 0.05 0.04 0.05 0.05 0.05 0.04 0.02 0.01 0.02 0.02 0.01 0.01 0.02 0.02 0.04 0.04 0.05 0.06 0.03 0.03 0.04 0.04 0.06 0.07 0.08 0.07 0.04 0.03 0.02 0.02 0.02 0.03
0.13 0.14 0.14 0.11 0.08 0.05 0.04 0.04 0.04 0.04 0.05 0.05 0.05 0.06 0.05 0.08 0.08 0.06 0.03 0.02 0.02 0.01 0.01 0.01 0.02 0.03 0.02 0.04 0.04 0.03 0.02 0.02 0.03 0.05 0.06 0.06 0.05 0.04 0.03 0.03 0.02 0.02 0.03
0.07 0.11 0.14 0.13 0.11 0.06 0.04 0.05 0.06 0.05 0.05 0.05 0.05 0.06 0.07 0.07 0.07 0.07 0.06 0.05 0.03 0.01 0.00 0.00 0.01 0.01 0.01 0.02 0.05 0.05 0.03 0.02 0.02 0.03 0.04 0.05 0.04 0.04 0.04 0.03 0.03 0.03 0.03
0.03 0.03 0.05 0.08 0.07 0.06 0.05 0.05 0.06 0.06 0.06 0.06 0.05 0.06 0.07 0.07 0.06 0.06 0.06 0.06 0.06 0.03 0.01 0.01 0.01 0.00 0.01 0.02 0.02 0.02 0.02 0.02 0.01 0.01 0.03 0.03 0.05 0.04 0.02 0.02 0.02 0.03 0.04
0.02 0.02 0.02 0.03 0.03 0.04 0.05 0.07 0.07 0.07 0.07 0.07 0.07 0.07 0.07 0.06 0.06 0.06 0.07 0.06 0.06 0.04 0.03 0.01 0.01 0.01 0.01 0.01 0.02 0.01 0.01 0.01 0.01 0.01 0.02 0.03 0.03 0.03 0.03 0.03 0.02 0.03 0.03
0.02 0.03 0.03 0.02 0.03 0.02 0.03 0.05 0.07 0.07 0.07 0.08 0.07 0.08 0.06 0.05 0.05 0.06 0.07 0.08 0.07 0.05 0.04 0.03 0.01 0.02 0.01 0.01 0.02 0.02 0.01 0.01 0.01 0.01 0.02 0.02 0.02 0.02 0.02 0.02 0.03 0.02 0.02
0.02 0.02 0.02 0.02 0.03 0.03 0.04 0.05 0.06 0.07 0.09 0.11 0.12 0.12 0.09 0.07 0.06 0.06 0.07 0.09 0.09 0.07 0.06 0.06 0.03 0.03 0.02 0.02 0.02 0.01 0.01 0.02 0.01 0.01 0.02 0.02 0.02 0.02 0.02 0.02 0.02 0.02 0.02
0.03 0.02 0.02 0.02 0.02 0.02 0.04 0.06 0.06 0.07 0.08 0.08 0.10 0.11 0.11 0.10 0.11 0.10 0.08 0.06 0.06 0.07 0.07 0.06 0.04 0.02 0.02 0.01 0.01 0.01 0.01 0.02 0.01 0.01 0.02 0.04 0.03 0.03 0.02 0.02 0.02 0.03 0.03
0.03 0.02 0.01 0.01 0.01 0.02 0.03 0.05 0.06 0.05 0.06 0.06 0.07 0.07 0.07 0.08 0.10 0.08 0.08 0.07 0.06 0.07 0.06 0.06 0.04 0.03 0.03 0.03 0.02 0.02 0.02 0.01 0.01 0.02 0.03 0.05 0.04 0.03 0.03 0.03 0.03 0.03 0.03
0.02 0.02 0.02 0.02 0.02 0.02 0.03 0.04 0.05 0.04 0.05 0.05 0.06 0.07 0.08 0.08 0.09 0.09 0.09 0.08 0.08 0.07 0.08 0.07 0.05 0.04 0.06 0.06 0.04 0.04 0.02 0.01 0.02 0.03 0.05 0.07 0.04 0.04 0.04 0.03 0.03 0.02 0.02
0.02 0.02 0.02 0.02 0.02 0.02 0.03 0.04 0.04 0.05 0.06 0.06 0.06 0.07 0.07 0.06 0.06 0.07 0.09 0.10 0.09 0.07 0.08 0.07 0.06 0.05 0.06 0.06 0.06 0.05 0.03 0.03 0.02 0.03 0.04 0.06 0.04 0.03 0.03 0.03 0.03 0.02 0.02
0.02 0.02 0.02 0.02 0.02 0.02 0.03 0.03 0.03 0.03 0.05 0.06 0.07 0.07 0.06 0.07 0.06 0.07 0.08 0.10 0.11 0.11 0.10 0.08 0.07 0.06 0.06 0.05 0.06 0.07 0.05 0.04 0.04 0.04 0.04 0.03 0.03 0.03 0.03 0.02 0.02 0.02 0.02
0.01 0.01 0.01 0.02 0.02 0.03 0.02 0.03 0.02 0.03 0.04 0.04 0.05 0.05 0.05 0.05 0.05 0.06 0.06 0.10 0.13 0.12 0.10 0.08 0.08 0.07 0.06 0.06 0.06 0.06 0.06 0.06 0.05 0.04 0.03 0.02 0.02 0.03 0.03 0.02 0.02 0.01 0.01
0.01 0.01 0.01 0.01 0.02 0.01 0.02 0.03 0.03 0.02 0.03 0.03 0.03 0.04 0.04 0.04 0.03 0.04 0.04 0.06 0.08 0.09 0.09 0.09 0.08 0.08 0.07 0.07 0.07 0.06 0.04 0.04 0.04 0.03 0.03 0.02 0.01 0.02 0.02 0.01 0.01 0.01 0.02
0.02 0.02 0.02 0.02 0.02 0.02 0.02 0.03 0.04 0.03 0.03 0.03 0.03 0.03 0.02 0.02 0.04 0.04 0.05 0.05 0.05 0.05 0.06 0.06 0.06 0.06 0.07 0.06 0.06 0.05 0.04 0.04 0.04 0.04 0.03 0.02 0.01 0.02 0.01 0.01 0.01 0.01 0.02
0.05 0.05 0.04 0.04 0.04 0.04 0.04 0.03 0.03 0.03 0.03 0.03 0.02 0.02 0.03 0.03 0.03 0.04 0.06 0.06 0.06 0.06 0.06 0.04 0.04 0.05 0.05 0.05 0.05 0.04 0.05 0.04 0.04 0.03 0.03 0.03 0.02 0.02 0.01 0.01 0.01 0.01 0.01
0.05 0.05 0.04 0.04 0.04 0.05 0.05 0.04 0.04 0.03 0.03 0.02 0.02 0.02 0.03 0.03 0.04 0.04 0.05 0.05 0.06 0.07 0.07 0.07 0.06 0.07 0.06 0.06 0.05 0.05 0.05 0.04 0.03 0.02 0.02 0.02 0.02 0.02 0.01 0.01 0.01 0.01 0.01
0.04 0.04 0.04 0.04 0.04 0.04 0.03 0.03 0.03 0.03 0.03 0.03 0.03 0.03 0.04 0.03 0.03 0.03 0.03 0.04 0.04 0.07 0.09 0.08 0.08 0.08 0.07 0.06 0.05 0.05 0.05 0.04 0.03 0.02 0.02 0.02 0.02 0.02 0.02 0.01 0.01 0.01 0.01
MSLP
1014.01 1014.13 1014.20 1014.22 1014.23 1014.24 1014.28 1014.35 1014.44 1014.51 1014.54 1014.49 1014.36 1014.15 1013.90 1013.65 1013.45 1013.35 1013.37 1013.50 1013.73 1014.03 1014.35 1014.65 1014.92 1015.15 1015.35 1015.55 1015.76 1016.00 1016.28 1016.58 1016.89 1017.18 1017.45 1017.69 1017.88 1018.06 1018.22 1018.40 1018.60 1018.82 1019.06
1013.68 1013.79 1013.85 1013.88 1013.89 1013.91 1013.95 1014.02 1014.10 1014.17 1014.19 1014.14 1014.00 1013.78 1013.52 1013.25 1013.02 1012.87 1012.84 1012.93 1013.12 1013.38 1013.68 1013.99 1014.29 1014.55 1014.80 1015.04 1015.29 1015.56 1015.84 1016.15 1016.46 1016.76 1017.02 1017.26 1017.47 1017.65 1017.83 1018.01 1018.21 1018.42 1018.66
1013.43 1013.53 1013.58 1013.61 1013.62 1013.65 1013.69 1013.75 1013.81 1013.87 1013.87 1013.80 1013.65 1013.42 1013.14 1012.84 1012.56 1012.36 1012.27 1012.28 1012.41 1012.63 1012.91 1013.22 1013.53 1013.83 1014.12 1014.41 1014.70 1014.99 1015.30 1015.61 1015.92 1016.22 1016.49 1016.73 1016.95 1017.15 1017.35 1017.55 1017.77 1017.99 1018.23
1013.22 1013.31 1013.36 1013.39 1013.40 1013.42 1013.45 1013.49 1013.53 1013.56 1013.54 1013.45 1013.28 1013.03 1012.73 1012.39 1012.08 1011.83 1011.67 1011.62 1011.68 1011.85 1012.09 1012.38 1012.69 1013.02 1013.35 1013.67 1013.99 1014.31 1014.63 1014.95 1015.26 1015.55 1015.83 1016.08 1016.32 1016.55 1016.78 1017.01 1017.25 1017.50 1017.75
1013.02 1013.10 1013.15 1013.17 1013.19 1013.20 1013.21 1013.22 1013.23 1013.22 1013.17 1013.05 1012.86 1012.60 1012.29 1011.94 1011.60 1011.31 1011.10 1011.00 1011.00 1011.10 1011.29 1011.55 1011.86 1012.19 1012.53 1012.87 1013.21 1013.55 1013.87 1014.18 1014.48 1014.77 1015.04 1015.30 1015.56 1015.82 1016.08 1016.36 1016.64 1016.92 1017.20
1012.82 1012.88 1012.93 1012.96 1012.97 1012.96 1012.95 1012.93 1012.90 1012.85 1012.76 1012.62 1012.42 1012.16 1011.85 1011.51 1011.18 1010.87 1010.64 1010.49 1010.44 1010.49 1010.62 1010.84 1011.11 1011.42 1011.75 1012.09 1012.43 1012.76 1013.07 1013.37 1013.65 1013.91 1014.17 1014.43 1014.69 1014.97 1015.27 1015.58 1015.91 1016.23 1016.54
1012.63 1012.69 1012.73 1012.76 1012.77 1012.75 1012.72 1012.66 1012.59 1012.50 1012.38 1012.21 1012.01 1011.76 1011.48 1011.17 1010.86 1010.58 1010.34 1010.16 1010.07 1010.07 1010.15 1010.30 1010.52 1010.79 1011.09 1011.40 1011.72 1012.02 1012.30 1012.57 1012.81 1013.05 1013.27 1013.51 1013.76 1014.04 1014.36 1014.70 1015.06 1015.42 1015.77
1012.50 1012.55 1012.60 1012.62 1012.63 1012.60 1012.55 1012.47 1012.37 1012.24 1012.08 1011.91 1011.71 1011.49 1011.24 1010.98 1010.72 1010.46 1010.24 1010.06 1009.94 1009.88 1009.90 1009.98 1010.13 1010.34 1010.58 1010.85 1011.12 1011.39 1011.64 1011.86 1012.06 1012.24 1012.42 1012.61 1012.83 1013.09 1013.39 1013.73 1014.10 1014.49 1014.87
1012.49 1012.53 1012.57 1012.60 1012.60 1012.58 1012.51 1012.41 1012.28 1012.13 1011.95 1011.77 1011.58 1011.38 1011.18 1010.97 1010.76 1010.55 1010.35 1010.17 1010.02 1009.91 1009.86 1009.87 1009.94 1010.07 1010.25 1010.46 1010.68 1010.90 1011.11 1011.28 1011.43 1011.56 1011.68 1011.81 1011.97 1012.17 1012.43 1012.74 1013.10 1013.48 1013.87
1012.61 1012.64 1012.67 1012.71 1012.72 1012.70 1012.63 1012.53 1012.38 1012.21 1012.02 1011.83 1011.65 1011.47 1011.31 1011.15 1010.98 1010.81 1010.62 1010.44 1010.26 1010.10 1009.98 1009.90 1009.89 1009.94 1010.05 1010.20 1010.38 1010.56 1010.73 1010.86 1010.97 1011.04 1011.09 1011.15 1011.23 1011.37 1011.55 1011.81 1012.12 1012.47 1012.83
1012.86 1012.87 1012.90 1012.93 1012.96 1012.94 1012.89 1012.78 1012.63 1012.45 1012.25 1012.06 1011.88 1011.72 1011.58 1011.45 1011.32 1011.16 1010.99 1010.79 1010.57 1010.36 1010.16 1010.01 1009.91 1009.89 1009.93 1010.03 1010.17 1010.33 1010.47 1010.58 1010.65 1010.68 1010.68 1010.67 1010.67 1010.72 1010.82 1011.00 1011.23 1011.52 1011.84
1013.17 1013.16 1013.19 1013.22 1013.26 1013.26 1013.21 1013.12 1012.97 1012.79 1012.59 1012.40 1012.22 1012.06 1011.93 1011.82 1011.69 1011.54 1011.36 1011.14 1010.89 1010.61 1010.35 1010.12 1009.95 1009.86 1009.85 1009.91 1010.02 1010.16 1010.30 1010.41 1010.46 1010.47 1010.43 1010.36 1010.30 1010.26 1010.28 1010.36 1010.51 1010.72 1010.97
1013.46 1013.44 1013.46 1013.50 1013.54 1013.56 1013.53 1013.45 1013.31 1013.14 1012.94 1012.75 1012.57 1012.41 1012.28 1012.16 1012.04 1011.88 1011.69 1011.44 1011.14 1010.82 1010.50 1010.20 1009.97 1009.82 1009.76 1009.79 1009.89 1010.03 1010.17 1010.29 1010.35 1010.36 1010.30 1010.21 1010.10 1010.00 1009.94 1009.94 1010.01 1010.13 1010.31
1013.67 1013.64 1013.66 1013.70 1013.74 1013.77 1013.76 1013.70 1013.58 1013.42 1013.23 1013.04 1012.86 1012.70 1012.57 1012.45 1012.32 1012.15 1011.94 1011.67 1011.34 1010.98 1010.61 1010.26 1009.98 1009.78 1009.69 1009.69 1009.77 1009.91 1010.06 1010.20 1010.28 1010.30 1010.26 1010.16 1010.04 1009.91 1009.80 1009.74 1009.74 1009.79 1009.89
1013.75 1013.72 1013.73 1013.77 1013.82 1013.86 1013.87 1013.83 1013.73 1013.59 1013.42 1013.24 1013.07 1012.91 1012.78 1012.66 1012.52 1012.35 1012.13 1011.85 1011.50 1011.12 1010.72 1010.34 1010.01 1009.78 1009.65 1009.62 1009.69 1009.82 1009.97 1010.12 1010.22 1010.27 1010.25 1010.18 1010.07 1009.94 1009.83 1009.74 1009.70 1009.70 1009.74
1013.71 1013.69 1013.69 1013.73 1013.79 1013.84 1013.86 1013.83 1013.76 1013.65 1013.50 1013.34 1013.19 1013.05 1012.93 1012.81 1012.68 1012.52 1012.30 1012.02 1011.68 1011.29 1010.88 1010.48 1010.13 1009.87 1009.70 1009.64 1009.67 1009.77 1009.91 1010.05 1010.17 1010.24 1010.25 1010.22 1010.15 1010.05 1009.96 1009.89 1009.84 1009.83 1009.83
1013.59 1013.57 1013.58 1013.62 1013.68 1013.73 1013.76 1013.76 1013.71 1013.62 1013.51 1013.38 1013.25 1013.13 1013.03 1012.93 1012.82 1012.68 1012.48 1012.23 1011.91 1011.53 1011.13 1010.74 1010.37 1010.08 1009.88 1009.76 1009.74 1009.79 1009.89 1010.00 1010.11 1010.19 1010.24 1010.24 1010.22 1010.19 1010.15 1010.12 1010.11 1010.10 1010.10
1013.43 1013.42 1013.44 1013.48 1013.54 1013.59 1013.64 1013.65 1013.63 1013.57 1013.48 1013.38 1013.29 1013.20 1013.12 1013.05 1012.96 1012.85 1012.68 1012.46 1012.18 1011.84 1011.47 1011.08 1010.72 1010.41 1010.17 1010.01 1009.92 1009.90 1009.93 1010.00 1010.07 1010.14 1010.19 1010.24 1010.27 1010.30 1010.33 1010.37 1010.41 1010.45 1010.48
1013.25 1013.26 1013.28 1013.33 1013.38 1013.45 1013.50 1013.53 1013.53 1013.49 1013.44 1013.37 1013.31 1013.25 1013.20 1013.15 1013.09 1013.00 1012.87 1012.69 1012.45 1012.16 1011.83 1011.48 1011.13 1010.81 1010.54 1010.33 1010.17 1010.08 1010.03 1010.02 1010.04 1010.08 1010.13 1010.20 1010.27 1010.37 1010.47 1010.59 1010.70 1010.80 1010.87
1013.04 1013.06 1013.09 1013.14 1013.21 1013.27 1013.33 1013.38 1013.40 1013.39 1013.37 1013.33 1013.29 1013.25 1013.22 1013.19 1013.15 1013.08 1012.99 1012.85 1012.65 1012.41 1012.13 1011.83 1011.51 1011.20 1010.91 1010.66 1010.45 1010.28 1010.16 1010.07 1010.03 1010.02 1010.05 1010.12 1010.23 1010.37 1010.54 1010.73 1010.91 1011.07 1011.20
1012.74 1012.78 1012.82 1012.88 1012.95 1013.03 1013.10 1013.16 1013.20 1013.22 1013.22 1013.20 1013.18 1013.16 1013.14 1013.12 1013.09 1013.04 1012.96 1012.85 1012.71 1012.52 1012.29 1012.04 1011.77 1011.48 1011.21 1010.94 1010.69 1010.47 1010.28 1010.12 1010.01 1009.96 1009.96 1010.02 1010.14 1010.31 1010.53 1010.77 1011.01 1011.23 1011.41
1012.31 1012.35 1012.41 1012.48 1012.56 1012.65 1012.74 1012.82 1012.88 1012.92 1012.95 1012.96 1012.95 1012.94 1012.92 1012.90 1012.87 1012.82 1012.76 1012.67 1012.56 1012.42 1012.25 1012.06 1011.84 1011.60 1011.35 1011.09 1010.83 1010.58 1010.35 1010.15 1009.99 1009.89 1009.85 1009.89 1010.01 1010.19 1010.43 1010.70 1010.98 1011.24 1011.46
1011.71 1011.76 1011.83 1011.92 1012.02 1012.13 1012.23 1012.33 1012.42 1012.49 1012.54 1012.57 1012.58 1012.58 1012.56 1012.53 1012.49 1012.44 1012.38 1012.31 1012.22 1012.12 1012.00 1011.86 1011.70 1011.52 1011.32 1011.09 1010.85 1010.60 1010.35 1010.12 1009.93 1009.80 1009.73 1009.74 1009.84 1010.01 1010.25 1010.53 1010.82 1011.10 1011.35
1010.96 1011.04 1011.13 1011.23 1011.35 1011.48 1011.61 1011.74 1011.85 1011.95 1012.02 1012.08 1012.11 1012.11 1012.10 1012.06 1012.02 1011.96 1011.89 1011.82 1011.74 1011.67 1011.59 1011.50 1011.40 1011.27 1011.12 1010.95 1010.74 1010.51 1010.27 1010.04 1009.84 1009.68 1009.58 1009.57 1009.63 1009.78 1010.00 1010.26 1010.54 1010.82 1011.07
1010.19 1010.28 1010.40 1010.53 1010.67 1010.82 1010.98 1011.13 1011.27 1011.39 1011.49 1011.57 1011.61 1011.63 1011.62 1011.59 1011.54 1011.47 1011.39 1011.32 1011.25 1011.18 1011.13 1011.07 1011.01 1010.93 1010.83 1010.70 1010.54 1010.34 1010.13 1009.91 1009.71 1009.54 1009.42 1009.38 1009.41 1009.52 1009.69 1009.92 1010.17 1010.43 1010.67
1009.53 1009.66 1009.80 1009.96 1010.12 1010.29 1010.46 1010.63 1010.78 1010.92 1011.04 1011.14 1011.21 1011.24 1011.24 1011.21 1011.16 1011.08 1011.00 1010.91 1010.84 1010.77 1010.72 1010.68 1010.63 1010.58 1010.52 1010.42 1010.29 1010.13 1009.95 1009.75 1009.56 1009.39 1009.26 1009.19 1009.18 1009.24 1009.37 1009.54 1009.75 1009.98 1010.20
Thickness
5763 5763 5762 5761 5763 5763 5763 5763 5764 5763 5763 5764 5765 5765 5765 5764 5765 5765 5763 5758 5755 5753 5751 5749 5747 5746 5744 5743 5741 5739 5738 5736 5735 5733 5732 5731 5730 5729 5727 5726 5725 5724 5723
5762 5762 5763 5761 5763 5762 5763 5763 5764 5763 5764 5764 5765 5765 5765 5766 5765 5763 5764 5760 5756 5754 5752 5750 5749 5747 5746 5744 5742 5740 5739 5737 5736 5734 5733 5732 5731 5730 5729 5728 5727 5725 5724
5762 5762 5764 5763 5763 5763 5762 5763 5764 5765 5765 5766 5766 5766 5767 5766 5767 5764 5764 5763 5761 5757 5754 5752 5750 5748 5747 5745 5743 5741 5739 5738 5737 5736 5734 5733 5732 5731 5730 5729 5728 5726 5725
5762 5762 5764 5765 5763 5764 5764 5764 5765 5765 5764 5765 5765 5767 5768 5767 5766 5765 5765 5764 5763 5762 5757 5754 5751 5749 5747 5746 5744 5742 5740 5739 5738 5736 5735 5734 5733 5732 5731 5730 5728 5727 5726
5763 5763 5764 5764 5764 5765 5765 5766 5766 5765 5764 5764 5767 5767 5769 5768 5767 5768 5767 5765 5764 5762 5761 5757 5753 5751 5749 5747 5745 5743 5742 5740 5739 5738 5736 5735 5734 5733 5732 5730 5729 5728 5726
5765 5764 5765 5764 5765 5766 5764 5764 5763 5763 5763 5764 5767 5767 5768 5769 5768 5768 5767 5767 5765 5764 5763 5760 5757 5754 5751 5749 5747 5745 5743 5742 5740 5739 5738 5736 5735 5734 5732 5731 5730 5729 5727
5767 5765 5767 5765 5765 5765 5763 5765 5764 5763 5763 5764 5763 5763 5767 5770 5770 5768 5768 5768 5767 5765 5763 5761 5759 5758 5755 5751 5748 5746 5744 5743 5741 5740 5739 5737 5735 5734 5733 5732 5730 5729 5728
5768 5768 5766 5767 5766 5764 5763 5763 5761 5762 5763 5763 5760 5758 5758 5762 5765 5771 5769 5767 5766 5766 5764 5763 5760 5757 5757 5755 5752 5748 5745 5743 5742 5740 5739 5737 5736 5734 5733 5732 5730 5729 5728
5769 5768 5767 5767 5766 5766 5765 5763 5762 5760 5759 5761 5762 5758 5753 5752 5759 5766 5767 5767 5765 5765 5765 5764 5762 5759 5756 5755 5753 5749 5747 5744 5742 5741 5739 5737 5736 5734 5733 5731 5730 5728 5727
5770 5770 5768 5767 5766 5768 5766 5765 5764 5762 5758 5758 5759 5759 5757 5756 5751 5754 5762 5766 5764 5763 5763 5764 5764 5760 5757 5755 5752 5749 5746 5744 5742 5740 5739 5737 5735 5734 5732 5730 5729 5727 5726
5770 5770 5769 5767 5766 5766 5765 5763 5762 5760 5760 5757 5757 5756 5755 5754 5753 5750 5750 5755 5760 5762 5762 5762 5762 5760 5757 5755 5752 5750 5746 5743 5741 5740 5738 5736 5734 5732 5731 5729 5728 5726 5724
5772 5770 5769 5767 5766 5766 5764 5762 5760 5759 5758 5756 5755 5755 5752 5750 5750 5750 5747 5749 5752 5757 5759 5760 5759 5758 5756 5754 5751 5747 5744 5742 5740 5738 5736 5735 5733 5731 5729 5727 5726 5724 5722
5771 5769 5769 5766 5765 5764 5762 5761 5759 5758 5757 5754 5752 5753 5753 5752 5752 5750 5747 5748 5748 5753 5754 5756 5756 5754 5753 5751 5748 5744 5742 5740 5738 5736 5734 5732 5731 5729 5726 5725 5723 5721 5720
5771 5770 5767 5765 5764 5762 5762 5760 5759 5757 5755 5753 5753 5751 5750 5752 5752 5750 5747 5744 5743 5747 5749 5749 5752 5751 5748 5746 5744 5740 5740 5737 5735 5733 5731 5729 5728 5726 5724 5722 5720 5718 5716
5768 5767 5765 5763 5762 5761 5759 5758 5757 5754 5753 5752 5752 5750 5748 5750 5750 5749 5747 5745 5739 5736 5740 5745 5745 5746 5744 5742 5739 5737 5737 5733 5731 5729 5728 5726 5724 5722 5721 5719 5717 5715 5712
5764 5763 5762 5761 5760 5758 5756 5754 5754 5752 5750 5748 5748 5746 5745 5747 5747 5745 5744 5744 5741 5736 5735 5741 5740 5742 5739 5739 5735 5734 5733 5729 5727 5726 5724 5722 5720 5718 5716 5714 5712 5710 5708
5760 5759 5758 5757 5755 5754 5753 5751 5750 5749 5746 5745 5744 5743 5742 5741 5742 5742 5741 5739 5738 5736 5731 5736 5737 5737 5733 5731 5730 5729 5729 5727 5726 5723 5720 5718 5716 5714 5711 5709 5707 5705 5703
5756 5755 5754 5752 5751 5750 5748 5747 5745 5745 5743 5741 5740 5739 5738 5739 5737 5737 5736 5736 5734 5732 5729 5727 5729 5730 5728 5726 5724 5723 5725 5725 5724 5719 5716 5714 5711 5709 5707 5704 5702 5700 5698
5751 5750 5748 5746 5745 5744 5742 5742 5740 5739 5738 5737 5736 5735 5734 5734 5732 5733 5731 5731 5730 5730 5727 5724 5724 5725 5724 5723 5719 5719 5720 5717 5718 5714 5710 5708 5706 5703 5702 5699 5697 5694 5692
5746 5744 5742 5741 5739 5738 5737 5735 5734 5733 5733 5732 5731 5731 5730 5728 5727 5727 5726 5725 5724 5722 5721 5719 5719 5718 5717 5717 5714 5712 5711 5711 5711 5710 5706 5703 5700 5697 5696 5694 5692 5689 5686
5741 5738 5736 5734 5733 5732 5731 5729 5727 5727 5726 5726 5726 5725 5725 5723 5721 5719 5721 5720 5718 5716 5715 5714 5713 5711 5710 5709 5707 5708 5705 5705 5704 5704 5701 5699 5697 5695 5692 5688 5686 5683 5680
5733 5731 5729 5727 5726 5726 5723 5720 5718 5719 5718 5718 5718 5718 5719 5717 5714 5712 5711 5710 5709 5709 5708 5706 5707 5705 5704 5704 5703 5702 5700 5697 5695 5697 5694 5692 5692 5691 5689 5686 5681 5677 5674
5725 5723 5722 5721 5719 5718 5714 5711 5710 5710 5711 5711 5710 5710 5712 5714 5709 5709 5707 5703 5703 5701 5699 5699 5700 5699 5699 5699 5696 5694 5693 5691 5689 5690 5687 5685 5685 5683 5682 5679 5674 5671 5668
5718 5716 5714 5713 5711 5710 5706 5703 5702 5702 5704 5704 5704 5703 5702 5702 5702 5700 5700 5700 5699 5699 5696 5694 5694 5695 5695 5694 5691 5689 5687 5685 5684 5683 5681 5678 5678 5676 5676 5672 5667 5664 5661
5710 5708 5707 5705 5703 5701 5698 5695 5692 5696 5696 5697 5697 5696 5694 5694 5691 5689 5690 5691 5692 5692 5691 5689 5687 5686 5684 5684 5682 5681 5679 5677 5676 5676 5675 5672 5671 5669 5668 5666 5662 5657 5655
5702 5700 5699 5697 5695 5693 5689 5685 5683 5688 5688 5689 5688 5688 5685 5683 5681 5679 5680 5682 5682 5683 5684 5683 5679 5678 5677 5676 5673 5672 5672 5670 5669 5668 5668 5665 5664 5661 5658 5659 5657 5652 5649